Wind_Speed
4 6 6 7 10 12 12 12 15 15 15 16 13 12 13 12 13 13 15 10 3 4 10 11 13 13 12 13 16 19 18 15 15 15 12 11 8 5 5 8 11 12 12 15 19 20 20 21 21 19 19 20 20 21 21 20 18 15 12 8 6 5 5 7 8 9 10 11 11 12 13 13 12 13 14 15 16 16 15 16 20 23 25 27 30 33
3 7 8 10 15 16 12 9 11 13 14 15 12 12 12 11 12 12 16 11 2 1 9 10 13 15 14 16 17 17 16 14 13 10 9 8 7 5 7 11 13 11 10 14 16 18 20 21 22 20 20 21 21 21 21 21 19 17 15 12 9 6 3 5 6 7 8 9 10 10 10 10 10 10 11 12 12 14 13 15 19 21 23 25 28 30
5 9 11 15 17 14 10 8 10 13 14 13 10 10 9 9 11 12 12 7 1 1 7 10 12 13 16 20 18 13 12 12 8 6 6 6 6 8 11 12 12 12 12 14 15 17 20 21 22 22 21 21 20 20 21 22 20 19 18 16 13 9 5 5 5 6 6 7 7 7 6 6 7 7 8 9 9 10 10 13 18 20 21 23 25 28
6 7 10 15 14 11 11 11 11 12 10 9 8 8 8 9 9 8 4 1 0 5 8 11 11 11 15 17 13 9 10 8 3 2 5 8 9 13 14 13 13 14 14 14 15 16 17 20 23 23 23 22 21 21 23 24 23 21 21 19 16 12 9 7 6 5 5 4 4 5 5 4 5 5 5 7 9 11 13 14 19 22 22 23 24 26
12 7 3 7 9 9 12 12 11 10 8 9 9 9 10 11 11 11 7 5 7 7 5 8 9 7 7 8 7 6 7 7 2 5 9 12 12 13 14 13 13 13 13 14 15 15 15 19 22 24 24 23 23 25 26 26 25 23 23 22 18 15 13 11 9 7 6 4 2 3 6 5 6 7 6 6 8 11 14 15 18 21 24 25 25 26
13 6 1 4 7 8 9 10 11 9 7 8 8 9 11 12 12 13 11 7 8 4 2 3 7 5 2 4 7 4 6 8 3 9 12 13 12 11 11 12 12 11 11 12 13 13 13 18 21 24 26 25 26 27 26 25 25 25 25 24 21 18 16 15 12 9 7 6 5 4 4 4 5 7 6 7 7 7 9 11 13 16 19 23 25 27
6 1 2 4 8 8 8 10 11 9 7 6 3 3 6 8 9 9 8 5 5 4 1 1 6 7 4 8 11 7 9 8 7 12 12 12 10 9 9 10 10 10 10 9 10 11 13 17 20 22 25 26 26 26 25 25 25 26 26 25 23 20 19 18 15 11 8 7 7 6 5 5 6 7 6 5 5 5 5 6 8 10 13 18 21 23
4 2 1 3 6 7 7 8 7 7 7 4 1 2 3 5 6 5 5 4 5 7 6 6 7 8 6 8 10 10 12 9 9 13 12 10 8 9 10 10 10 10 9 8 9 10 12 16 19 20 23 24 25 25 25 26 26 26 27 26 24 21 20 20 17 14 11 9 7 6 6 6 7 8 8 7 5 4 4 4 6 7 9 14 17 19
3 4 4 5 5 6 6 3 1 5 7 1 3 2 2 3 4 3 4 5 5 7 7 7 8 6 7 5 5 9 12 10 11 12 11 9 7 9 9 10 10 9 10 10 9 10 12 17 20 21 22 22 23 24 24 24 24 25 26 27 25 22 21 21 20 17 14 11 8 7 8 8 8 8 9 8 7 5 4 4 6 7 7 10 14 16
1 2 2 4 5 5 3 2 3 4 5 1 2 1 1 3 4 4 5 5 5 7 8 8 10 6 7 4 6 6 9 9 11 11 9 9 8 9 8 9 9 8 8 9 9 10 14 18 19 19 20 21 21 21 22 22 23 24 25 26 27 24 22 21 21 18 15 12 10 11 12 12 11 10 10 9 9 8 6 6 6 6 7 8 10 13
2 3 1 3 6 2 3 4 2 1 0 1 1 3 4 6 6 4 5 3 4 8 9 10 15 9 6 3 5 3 3 6 9 10 9 9 9 9 8 7 8 7 8 7 8 11 15 18 18 17 18 19 20 20 21 21 22 23 24 25 26 25 23 22 21 19 16 14 14 15 14 13 12 12 12 11 11 11 10 9 8 7 7 8 8 10
5 4 3 3 2 1 3 2 1 1 1 2 3 3 5 6 4 4 4 3 5 8 6 6 14 12 7 3 2 2 4 4 6 10 11 10 9 9 8 6 7 7 7 7 8 11 13 14 15 16 17 17 19 20 21 21 21 21 23 23 24 25 24 23 22 20 18 17 18 18 16 14 13 12 12 11 12 12 11 11 10 9 8 8 8 9
5 7 7 4 2 5 5 2 2 3 3 3 3 3 4 6 4 6 5 4 6 5 1 4 6 9 8 6 5 3 7 7 8 10 11 12 10 9 7 6 7 7 7 8 9 10 10 10 12 14 15 16 17 19 19 20 20 20 22 23 24 24 24 23 23 23 23 23 22 20 17 15 13 12 12 11 11 11 11 11 11 10 10 9 9 9
3 3 7 6 3 7 9 5 3 3 4 6 4 4 4 6 7 8 8 7 8 4 3 2 3 5 7 8 7 6 10 10 10 11 11 12 11 9 7 7 8 8 9 9 9 9 9 10 12 13 14 15 16 17 18 18 19 19 21 23 23 24 24 24 24 25 25 25 25 23 20 17 14 13 12 11 11 11 12 11 12 12 11 12 11 11
6 4 5 6 1 7 12 8 5 3 1 6 4 4 6 6 7 9 8 7 9 7 2 2 2 4 5 0 4 8 11 10 10 11 11 11 10 8 8 9 9 9 9 8 8 9 9 11 12 13 13 14 15 17 17 18 19 19 19 21 22 23 24 25 25 25 25 24 24 24 23 21 18 16 14 11 11 11 11 11 12 12 12 13 13 13
7 7 2 3 1 4 7 4 3 2 2 3 2 3 5 5 6 7 8 8 10 10 7 5 4 5 5 5 10 9 10 11 10 10 10 10 9 8 8 9 8 8 8 7 7 8 9 11 12 12 13 14 15 16 17 18 19 19 19 20 21 21 22 22 23 23 24 24 24 25 25 24 22 21 18 15 15 14 12 12 11 12 12 13 13 13
5 5 4 3 1 2 1 2 1 2 3 1 2 3 2 2 4 6 8 9 9 11 9 7 7 8 7 4 11 10 10 10 9 9 9 9 9 9 8 8 7 7 7 7 7 7 9 11 12 12 13 14 15 15 17 17 17 18 19 19 20 20 20 21 21 20 21 22 22 23 26 26 25 24 21 18 18 17 15 13 12 12 12 12 13 14
3 5 1 1 3 2 3 3 2 3 2 1 3 2 3 1 2 4 8 8 9 12 8 8 12 11 8 4 6 10 9 9 8 8 9 8 8 8 7 7 6 6 6 7 7 7 8 10 12 12 13 14 15 15 15 16 16 16 16 17 19 19 19 19 19 18 18 18 19 20 22 24 25 26 24 21 20 17 17 16 14 13 13 13 13 13
3 5 5 3 3 1 3 1 4 4 4 3 3 2 2 4 5 4 6 6 9 11 8 10 14 11 9 8 3 6 10 10 8 8 8 7 7 7 6 6 5 5 4 5 6 6 6 8 10 11 12 13 13 14 14 14 15 15 15 16 16 17 17 17 17 18 17 16 16 17 19 20 21 23 23 23 22 20 19 19 17 16 15 14 14 13
2 4 6 2 2 2 3 3 6 5 4 2 3 1 2 3 4 6 5 5 8 10 9 10 10 8 7 7 5 3 11 12 9 8 7 6 6 5 4 4 3 4 3 3 4 4 4 6 7 7 8 9 11 12 12 12 14 14 14 15 15 16 17 18 19 19 18 17 16 16 17 19 19 21 22 22 22 21 21 21 20 19 19 17 15 14
2 5 6 3 3 4 4 5 6 7 5 4 4 5 4 3 2 4 5 5 7 9 9 9 9 8 4 5 7 7 9 8 8 8 6 5 5 4 4 3 2 3 3 3 3 3 4 4 5 5 5 5 6 8 8 9 11 12 13 13 15 16 17 19 21 20 19 19 19 17 17 18 18 19 20 21 22 23 22 22 21 21 21 20 18 17
3 4 7 7 5 6 8 6 7 10 8 6 6 6 7 7 5 5 7 7 6 8 8 9 11 7 2 5 7 7 7 6 6 7 6 5 5 4 4 3 3 3 3 3 4 3 4 4 5 5 5 5 5 6 6 6 8 9 11 11 13 15 16 18 21 21 19 19 20 19 19 19 19 20 21 21 22 24 24 25 24 24 23 22 21 20
1 2 6 9 9 11 14 13 13 12 9 8 8 7 8 8 8 9 10 7 5 8 8 9 12 5 3 5 6 7 6 6 6 6 6 5 4 4 4 4 4 4 4 4 4 3 4 4 4 4 5 5 6 6 7 7 8 9 9 10 12 12 14 16 19 20 19 19 19 19 19 21 22 23 23 23 24 26 26 25 25 25 26 25 24 23
2 2 6 8 8 11 14 15 12 8 6 7 7 7 7 7 7 8 7 4 4 6 7 9 11 5 3 4 5 6 4 4 4 4 5 4 3 4 3 4 4 4 4 4 3 3 3 4 4 4 4 5 6 7 8 8 9 9 10 11 11 11 12 13 16 17 17 17 18 18 18 20 22 24 26 26 26 27 27 27 26 27 28 27 27 27
1 4 5 7 7 7 9 10 6 1 1 3 4 5 5 5 6 6 4 4 4 7 9 10 10 5 1 2 2 2 3 3 4 3 3 3 3 3 2 2 2 2 3 3 3 4 4 5 6 7 7 8 9 10 10 10 10 11 12 13 13 12 12 12 13 15 14 15 16 16 17 18 18 20 23 25 27 27 27 28 28 29 30 29 30 29
3 4 4 6 8 9 8 7 5 1 1 1 4 7 7 7 9 8 6 7 8 8 10 9 9 5 2 2 4 6 6 6 5 5 4 4 4 4 3 2 2 2 2 2 3 3 4 4 6 7 8 9 11 11 12 13 13 14 14 15 15 15 14 14 14 16 15 15 16 16 17 18 18 17 17 20 24 26 27 28 29 29 30 30 30 29
3 4 7 10 11 11 11 11 10 9 7 8 9 10 11 10 10 8 7 9 9 8 9 11 12 11 8 9 9 7 8 7 6 6 6 6 6 6 6 5 5 4 4 4 3 3 2 3 3 4 5 6 7 9 10 11 12 14 14 16 17 16 16 15 16 17 17 16 16 16 16 18 19 18 16 17 21 24 26 27 26 29 30 29 30 29
3 6 11 14 14 15 16 17 18 16 14 15 15 15 15 14 12 11 12 13 11 10 11 12 13 15 13 15 14 8 6 7 7 8 9 8 8 8 7 7 7 6 6 5 4 4 4 4 4 4 5 5 6 7 8 8 10 10 11 14 15 15 15 15 16 18 18 17 17 16 15 16 17 16 15 18 20 22 25 26 27 31 31 30 30 29
5 8 11 13 15 17 18 19 19 18 16 16 17 18 18 18 17 16 16 17 14 13 13 13 16 18 15 17 20 17 10 9 10 9 9 8 8 8 8 8 8 7 6 6 5 5 4 5 5 5 6 6 6 7 8 8 9 9 10 12 13 14 14 14 15 17 18 18 17 17 17 18 18 15 14 17 19 20 22 27 32 33 31 30 29 27
4 7 10 12 14 16 19 20 19 18 17 18 18 20 20 20 22 21 20 20 18 17 18 19 21 21 18 19 20 14 7 7 7 6 7 8 8 8 9 8 8 7 6 5 5 4 4 5 5 5 6 6 7 8 8 9 9 9 11 12 12 13 13 13 14 15 16 16 16 17 18 21 21 18 16 18 23 23 23 27 31 30 28 29 28 26
5 7 8 7 9 13 16 18 17 16 16 17 17 18 20 21 21 20 19 19 18 18 20 22 23 20 15 12 8 2 4 5 6 6 6 6 6 7 7 8 8 7 6 5 4 4 4 5 5 6 6 6 7 7 8 9 9 10 11 12 12 12 12 12 13 14 15 16 17 18 19 20 21 21 21 23 27 29 31 31 30 29 28 29 28 27
4 6 4 4 7 9 10 13 13 11 12 14 16 18 20 19 17 16 16 16 17 18 20 21 19 13 7 2 1 4 5 4 5 6 5 4 5 5 6 7 8 7 6 6 5 5 5 5 6 6 6 7 7 8 8 9 9 10 11 12 12 13 13 13 13 14 16 17 19 20 20 20 21 23 25 26 27 29 32 33 32 30 30 29 29 29
4 5 3 4 6 4 7 10 7 5 8 11 11 14 17 17 17 17 15 15 17 17 16 13 9 4 2 2 0 2 3 3 3 3 3 3 3 4 6 7 8 8 7 6 6 6 6 6 6 7 8 9 9 9 9 9 10 11 11 12 12 13 14 14 15 16 17 18 19 20 20 21 23 26 27 27 28 30 31 33 34 34 33 31 30 30
7 7 6 6 5 5 8 8 4 3 9 8 2 5 12 14 15 16 15 16 17 14 9 5 2 2 2 2 2 3 2 2 3 3 3 3 3 5 7 8 8 8 8 7 7 7 7 7 8 9 10 10 10 10 11 11 12 12 12 12 13 14 15 16 17 17 19 20 19 18 20 21 24 26 27 28 29 31 32 34 34 35 36 35 33 31
9 9 8 7 7 7 8 7 8 10 8 2 3 2 6 7 8 11 14 16 16 14 11 8 4 5 4 2 1 0 2 3 5 5 5 5 5 7 8 8 8 9 8 8 8 8 8 10 11 12 11 11 10 11 12 12 13 13 13 13 14 16 17 18 19 18 18 20 20 20 21 23 24 25 26 28 29 31 34 35 35 37 39 37 34 33
10 8 7 7 7 8 7 8 11 9 3 1 3 3 2 4 6 10 12 11 10 10 12 10 4 5 5 4 2 1 3 5 6 7 8 8 8 9 8 8 9 9 9 9 10 11 12 13 14 13 11 10 10 11 12 12 13 13 14 15 16 18 20 20 20 19 19 20 22 22 22 23 24 25 26 27 29 31 33 35 37 39 39 35 32 33
11 9 7 7 7 7 9 10 11 10 8 8 7 3 2 4 5 6 7 6 4 5 6 4 4 6 6 3 1 1 2 4 5 7 8 8 8 8 8 8 9 9 10 13 14 14 16 16 13 10 9 10 11 11 12 13 13 13 15 16 18 19 21 21 20 20 20 21 22 22 21 21 23 26 28 28 29 31 33 34 36 38 37 34 33 34
11 10 9 8 7 7 9 10 9 11 11 7 2 3 4 3 4 4 5 5 4 5 6 6 7 7 5 2 3 3 1 2 5 8 5 4 7 6 6 7 9 10 11 13 14 15 16 13 9 8 9 12 13 12 12 14 14 13 14 16 17 18 19 19 19 20 20 21 22 21 20 22 25 27 29 30 30 32 33 33 33 33 33 33 33 35
8 9 9 9 8 8 10 10 9 10 7 2 0 3 4 3 3 3 7 8 3 2 4 7 8 6 5 5 5 5 3 4 6 7 4 1 4 5 6 6 9 11 12 12 13 13 11 8 8 10 12 12 13 14 14 14 13 13 14 16 17 18 18 18 19 20 21 22 22 21 22 25 28 30 31 32 33 33 34 34 34 34 33 32 32 34
4 6 8 9 9 10 10 9 8 8 4 1 0 1 3 2 2 3 9 8 1 2 4 7 8 7 7 6 5 5 6 6 6 7 7 5 6 6 7 8 10 11 12 14 12 9 7 7 10 12 12 12 14 14 13 12 13 14 16 17 17 17 17 18 20 20 22 23 23 24 27 30 31 32 33 33 34 35 36 35 36 35 34 34 33 32
3 4 6 9 10 11 11 10 8 7 6 4 3 4 5 2 1 6 9 3 3 5 5 6 8 7 7 6 5 5 7 7 8 10 10 10 9 8 10 11 12 13 13 11 8 6 7 9 9 10 12 12 12 13 14 15 16 16 16 16 16 16 17 19 20 22 23 25 25 27 31 33 32 33 34 34 35 36 37 36 36 36 37 36 35 35
2 3 5 8 9 9 9 10 9 7 5 4 3 4 5 4 5 6 3 2 5 6 5 6 7 6 6 7 7 7 9 10 11 12 12 11 11 10 11 12 14 14 11 7 5 6 7 8 9 11 12 11 11 13 15 18 19 18 17 16 16 17 19 21 23 24 26 27 28 31 33 34 33 33 34 34 34 35 36 37 36 37 38 37 36 37
4 4 6 7 7 7 7 8 8 7 2 5 5 2 4 6 6 4 1 2 5 6 6 7 7 7 8 9 9 10 11 12 12 12 12 12 11 11 12 12 11 9 7 6 6 6 6 8 10 12 11 10 12 13 14 17 20 18 15 15 17 20 23 24 24 26 27 28 30 32 34 34 34 34 33 33 33 33 35 37 36 36 36 36 36 37
5 5 7 6 5 6 8 7 7 5 1 5 6 3 4 5 5 3 2 4 5 5 6 6 7 8 9 9 10 11 12 12 12 12 12 12 11 11 11 9 6 5 5 6 6 6 7 8 10 14 14 12 11 13 14 16 18 17 16 20 23 24 25 25 25 27 28 28 31 33 34 34 34 34 33 33 32 32 33 34 34 34 33 33 33 33
7 8 8 7 6 7 9 8 7 6 4 4 6 6 8 9 9 6 6 6 7 7 6 7 8 10 9 9 10 11 11 11 12 12 12 11 11 9 6 4 3 4 6 6 5 6 9 11 13 17 20 16 12 13 14 13 15 19 24 25 25 24 25 26 28 29 30 31 32 33 32 33 34 33 33 33 31 30 31 32 31 31 30 29 30 30
9 11 10 8 8 10 11 12 11 12 13 12 10 9 11 13 12 9 8 8 8 8 8 8 10 11 10 9 10 10 10 11 12 12 12 10 8 6 3 2 3 4 5 5 6 8 13 16 17 18 20 19 15 12 13 15 17 21 25 25 24 24 26 28 30 31 32 32 33 32 32 33 32 31 31 32 29 28 29 29 29 30 29 28 28 29
12 14 11 8 10 11 11 12 13 15 16 15 12 12 12 12 11 10 9 9 9 10 10 10 10 10 9 9 9 10 11 11 12 12 9 7 6 4 3 3 4 4 5 6 8 11 14 15 16 15 17 19 16 13 16 20 20 19 22 26 27 27 28 30 30 30 32 32 31 31 30 30 29 28 29 29 27 27 28 28 28 29 29 28 27 28
8 10 9 10 13 13 12 14 15 16 16 15 13 11 11 12 13 12 11 11 11 11 11 10 9 8 8 8 9 10 11 11 10 9 6 4 4 3 3 4 4 6 7 7 9 13 13 13 13 15 16 18 17 16 18 20 19 20 24 28 28 28 31 31 29 29 31 31 29 29 28 26 27 27 28 28 27 28 29 29 29 29 29 29 28 29
7 8 8 9 11 11 13 16 17 16 16 16 15 13 13 13 14 14 14 13 12 11 10 9 8 7 7 7 7 7 8 8 7 5 4 3 3 3 3 4 5 6 8 8 9 11 12 12 13 15 17 18 18 19 19 20 21 24 27 28 28 29 31 31 28 27 28 28 28 28 26 24 26 27 28 30 30 30 31 31 31 32 33 33 32 32
9 11 10 9 9 10 11 14 14 11 11 13 12 12 12 12 13 15 13 11 11 11 11 9 7 5 4 4 4 4 5 6 4 2 2 3 3 3 4 5 6 7 8 9 11 12 12 13 15 17 19 19 18 19 20 22 23 26 27 28 29 29 29 28 27 27 27 26 26 26 24 25 27 29 29 30 31 32 32 32 31 33 35 36 36 36
11 12 11 9 10 11 12 13 12 10 10 12 12 13 13 12 13 13 12 11 11 8 6 6 6 5 4 4 2 2 3 3 2 1 1 2 2 3 5 5 6 8 9 11 12 12 13 14 16 18 20 19 19 20 23 25 27 28 29 29 28 27 27 27 25 26 26 25 24 25 26 28 29 30 30 30 30 31 32 32 31 31 32 35 37 38
Wind_Direction
186 217 207 220 237 247 246 234 242 256 270 281 284 278 277 278 276 274 278 288 1 300 280 286 289 288 284 279 274 274 283 287 279 273 273 279 291 314 351 28 38 43 38 28 28 26 22 19 16 17 16 17 19 19 17 15 10 5 355 339 318 291 248 226 217 211 208 209 211 212 215 218 218 215 215 218 219 219 218 220 225 228 229 227 224 223
189 228 227 232 244 259 271 271 269 270 275 277 275 274 273 272 271 272 279 286 65 273 282 293 294 295 293 281 271 272 279 277 275 281 286 299 323 1 35 50 49 44 38 31 28 25 23 22 19 19 20 19 18 17 18 19 16 13 10 3 349 335 290 252 237 228 221 219 218 219 221 221 220 218 216 220 223 222 221 224 226 228 228 228 226 225
214 232 234 239 251 265 273 281 279 272 272 271 266 269 269 267 275 278 276 278 108 238 289 302 299 297 289 281 278 275 271 269 282 311 327 342 17 49 51 53 48 39 35 29 25 22 22 23 22 22 22 21 17 16 19 20 20 20 17 11 3 356 337 305 273 250 245 239 231 230 232 222 215 216 213 213 215 213 212 222 231 232 231 229 228 227
236 239 234 244 257 265 264 266 266 265 263 256 253 261 263 266 277 283 277 114 145 266 286 298 293 281 274 273 271 258 257 264 276 13 35 48 64 70 62 54 47 38 30 24 21 18 20 25 26 24 22 21 19 19 21 21 20 20 18 15 12 10 4 345 322 290 278 262 226 215 228 222 210 217 212 211 217 220 221 226 234 237 235 233 231 230
256 267 237 244 254 253 262 267 260 259 259 249 245 249 258 269 276 283 297 320 301 279 267 286 287 275 272 268 241 210 251 271 189 100 77 71 68 73 71 62 54 45 34 25 20 14 18 26 26 24 22 21 23 22 22 22 21 20 18 18 18 22 21 9 353 332 309 286 249 211 225 231 229 237 235 227 229 230 231 233 236 238 238 236 235 233
262 278 96 228 248 247 256 264 256 254 268 263 250 247 260 276 284 289 300 314 305 281 175 305 307 298 321 282 247 211 283 283 130 97 80 70 55 56 64 63 60 51 42 32 22 15 21 30 28 26 24 22 24 22 21 22 23 23 22 20 22 26 25 18 9 356 336 312 298 279 259 262 259 256 251 246 244 235 233 234 233 236 237 237 237 235
260 303 68 244 254 251 244 256 256 251 264 270 276 288 276 279 284 289 297 299 288 283 259 314 302 288 286 276 257 239 270 262 125 94 80 74 62 58 56 55 55 49 46 37 26 21 27 35 33 29 26 24 23 20 20 23 24 26 25 24 25 26 24 18 15 10 0 341 320 314 314 311 307 298 295 290 275 257 248 237 226 227 233 239 239 235
208 186 127 220 238 244 236 253 254 229 246 264 31 3 311 284 282 283 285 272 269 291 283 237 240 267 280 279 251 226 248 236 129 95 80 77 73 74 65 59 54 45 43 37 29 26 31 39 37 33 30 27 25 21 21 23 24 26 27 27 28 28 26 20 17 17 12 0 343 343 349 338 328 319 315 320 315 288 266 247 232 227 231 243 244 236
146 180 181 183 207 234 230 266 334 208 237 280 64 344 326 299 282 270 271 273 275 290 281 218 205 251 279 279 221 211 239 216 134 102 93 92 75 69 65 62 59 49 44 38 31 28 34 40 37 34 32 28 27 24 25 26 24 27 28 28 30 29 27 25 22 22 18 7 355 4 14 1 346 335 325 322 320 309 286 259 245 238 236 243 246 241
129 165 185 191 208 235 217 39 21 235 238 91 99 234 247 247 252 245 253 277 279 269 268 221 190 234 287 260 195 200 233 201 136 108 111 112 90 73 64 60 59 54 48 38 32 32 37 40 36 33 33 29 28 25 26 29 28 29 29 29 31 30 28 27 26 26 22 16 13 21 23 10 354 343 334 327 321 316 304 286 268 253 247 240 239 240
185 109 11 236 226 233 100 77 15 296 204 122 214 266 271 254 248 246 242 262 268 257 262 220 191 214 283 239 194 187 213 182 134 122 126 113 96 82 65 60 57 54 52 40 35 38 39 40 35 32 32 30 28 26 27 29 29 30 30 31 32 31 30 29 28 27 26 25 27 29 25 15 3 352 342 334 326 323 315 304 294 277 263 247 239 241
211 191 218 210 205 158 118 137 185 108 131 206 247 294 302 278 244 243 227 195 246 268 280 197 186 212 246 221 202 137 111 110 112 129 132 116 103 89 70 62 58 52 50 42 38 39 37 36 33 31 31 29 27 27 27 27 28 30 30 31 33 31 30 30 29 29 29 29 30 30 27 19 9 358 349 340 332 329 323 316 309 299 286 268 252 243
215 211 202 177 170 191 196 219 182 163 180 206 244 263 284 287 262 257 250 225 252 268 96 140 190 226 245 248 242 165 108 87 85 106 121 117 106 95 88 77 66 58 50 44 40 38 34 31 30 28 28 27 26 28 27 26 28 30 29 30 32 31 29 29 29 29 30 31 30 29 26 20 12 3 356 345 337 334 328 323 318 312 303 293 279 259
268 202 178 175 187 190 195 222 234 212 186 190 217 230 243 276 276 272 272 265 268 262 117 137 223 241 258 256 230 152 104 94 91 92 102 107 104 103 99 82 69 61 50 45 41 38 35 30 28 27 27 26 26 27 27 27 28 30 29 30 31 29 27 29 29 29 31 31 30 30 27 22 15 6 358 350 343 338 332 327 321 316 311 305 297 285
273 283 179 173 167 173 189 226 276 348 193 202 214 238 246 263 269 273 278 274 279 290 293 239 205 242 273 291 119 110 100 98 97 95 97 98 101 100 88 73 65 59 50 47 44 40 38 33 29 28 27 27 26 25 26 27 27 28 28 28 30 29 26 27 28 29 29 29 29 30 28 25 20 13 6 357 347 338 331 327 320 313 310 306 301 297
251 270 115 113 18 166 188 237 305 341 268 216 175 232 251 265 266 270 277 276 285 293 279 244 227 263 268 119 113 110 103 97 93 97 98 94 93 87 75 67 61 57 52 48 45 42 39 35 33 30 27 26 25 25 25 24 24 24 24 25 27 27 25 25 26 27 28 30 30 31 30 28 24 21 15 6 359 352 340 330 320 313 308 306 301 297
251 255 82 78 259 164 151 349 28 254 278 104 151 228 269 304 284 277 276 274 275 275 270 256 255 265 260 162 124 113 100 98 100 98 95 91 88 79 71 66 59 56 53 48 47 44 41 37 34 32 29 26 24 23 25 23 22 22 21 21 22 23 23 23 23 24 24 26 27 27 28 28 26 24 19 10 5 1 355 345 332 321 314 307 303 298
305 273 272 262 244 116 62 351 303 245 255 190 207 281 2 303 255 264 268 270 267 265 264 262 266 270 272 254 135 130 123 114 113 105 99 98 91 82 77 69 61 57 50 47 46 41 40 37 33 32 30 28 26 24 24 24 23 23 22 21 21 21 21 20 20 20 19 19 20 20 21 22 23 23 21 16 9 4 3 358 347 336 328 319 312 305
7 285 278 270 255 123 98 277 261 217 211 256 276 7 353 258 249 246 251 258 262 264 265 262 267 270 265 271 254 174 153 134 128 121 111 104 95 91 90 80 67 62 50 42 40 33 31 29 25 25 23 23 23 22 22 23 23 25 24 23 23 22 21 19 18 19 19 19 19 19 20 20 20 21 20 18 14 10 9 5 359 353 345 335 328 320
64 270 281 273 199 152 136 223 252 228 198 267 301 269 226 253 271 262 254 259 260 265 271 267 265 263 264 298 335 115 138 140 143 133 118 106 100 95 94 90 75 66 54 41 40 32 25 22 17 17 14 12 14 13 15 17 18 19 19 19 21 21 21 22 22 22 22 22 21 20 21 21 20 19 18 17 15 13 11 8 5 1 356 351 345 336
194 236 264 267 166 179 215 222 246 260 242 226 233 227 223 221 252 268 258 248 254 264 271 271 265 259 284 357 29 81 112 131 139 130 124 116 111 104 97 96 86 76 65 52 49 39 30 25 21 20 13 8 10 9 9 12 13 13 10 11 13 14 17 19 20 23 23 22 23 22 19 19 19 18 17 16 15 14 11 10 8 4 0 359 356 351
243 244 260 271 248 244 261 256 266 283 283 268 257 244 248 254 258 268 257 236 237 256 261 268 269 264 336 23 41 70 81 94 109 118 121 121 121 116 103 95 84 74 63 50 45 36 30 24 21 23 20 21 22 16 13 16 16 13 8 5 5 5 7 7 9 13 14 15 19 20 18 17 16 16 16 15 14 13 11 10 9 8 7 3 359 357
330 268 257 263 260 264 275 279 279 282 277 270 269 261 264 267 257 257 263 263 260 261 262 267 267 266 50 34 47 67 71 81 91 104 114 119 117 106 96 88 79 65 55 46 36 29 25 21 18 19 21 25 25 18 15 19 17 13 9 7 5 3 1 359 359 0 1 2 5 9 11 12 11 12 12 12 10 10 10 10 8 8 9 7 3 0
68 255 250 258 262 267 274 274 273 275 256 248 251 252 257 262 261 263 273 294 287 272 274 269 264 264 52 37 53 71 77 89 101 115 123 134 129 113 99 77 62 45 41 30 22 23 18 17 16 16 21 20 17 15 15 15 12 7 4 2 1 358 356 356 356 356 355 354 355 356 358 1 4 6 6 6 5 4 4 4 4 5 7 6 4 3
294 250 254 271 273 272 273 265 256 202 177 248 268 285 291 294 296 295 286 282 264 242 243 257 267 266 101 82 98 132 156 161 165 154 151 174 168 149 127 84 47 16 11 357 356 4 2 7 8 5 10 7 4 7 5 5 5 2 359 356 354 351 347 348 349 350 350 348 348 349 349 349 351 354 358 360 359 358 358 357 358 360 2 2 1 1
281 266 269 275 271 268 267 267 275 332 53 290 292 286 286 285 282 283 281 274 262 239 233 251 274 273 187 188 206 203 210 208 193 182 195 210 202 192 185 182 214 240 258 291 316 340 346 352 355 357 360 357 357 358 356 357 358 355 353 351 349 347 344 343 344 345 344 343 342 342 343 344 342 340 342 346 350 351 352 352 352 353 354 354 354 355
272 270 263 261 261 264 267 274 291 302 293 286 285 276 271 271 268 271 271 262 263 270 264 261 270 275 273 269 255 215 204 216 212 201 204 210 207 204 206 207 211 216 222 233 245 257 282 299 312 330 335 338 344 346 346 348 347 346 345 342 341 340 339 339 341 341 341 338 336 335 336 339 338 335 331 333 338 340 342 345 347 347 347 347 346 346
270 268 264 263 261 263 267 273 279 282 278 277 279 275 271 269 262 254 253 257 269 280 270 265 274 280 283 285 287 276 227 218 222 216 210 209 208 205 204 206 210 219 222 220 228 238 248 262 270 281 291 305 317 321 327 329 326 327 328 327 328 328 329 331 333 335 335 332 331 330 331 333 332 329 326 327 330 332 333 335 337 341 342 341 340 339
270 268 265 268 268 267 269 271 271 273 274 275 274 271 270 268 263 257 257 263 269 268 268 278 283 283 284 286 287 289 272 230 218 216 209 205 204 199 200 206 212 218 219 220 229 235 241 253 262 270 277 287 296 302 309 309 307 306 306 309 313 315 317 322 325 327 327 326 325 324 325 329 329 326 321 322 324 325 326 329 332 335 334 332 332 331
263 262 263 268 270 269 270 271 272 274 274 272 268 267 267 265 263 265 268 271 270 268 273 279 277 275 279 279 279 282 265 217 204 196 192 193 196 199 205 212 215 218 223 228 232 237 248 258 267 274 280 287 292 296 301 300 300 300 297 298 301 304 308 311 314 316 316 316 316 318 321 325 326 324 319 320 322 322 322 324 327 327 325 323 322 320
257 263 277 286 276 269 270 273 274 274 273 272 269 265 263 262 263 266 268 270 270 270 272 272 271 272 273 270 267 227 156 175 185 182 191 199 197 201 212 219 224 229 234 237 241 250 258 265 274 282 288 293 294 294 294 293 293 292 292 293 294 297 299 299 300 305 308 310 312 314 317 320 321 321 319 318 319 320 321 322 323 322 320 319 315 311
265 270 294 300 274 265 267 275 281 284 282 274 264 258 256 257 261 261 260 264 268 272 274 273 273 276 276 264 162 150 159 179 192 195 209 215 202 210 227 233 235 239 245 250 255 259 265 272 279 285 290 293 293 292 289 288 288 287 289 291 293 295 295 292 293 298 302 305 310 313 315 315 316 316 315 314 315 315 317 319 319 318 316 314 311 309
256 270 290 283 273 261 262 278 304 328 290 268 251 246 251 256 261 261 261 264 265 268 275 276 276 293 11 61 305 231 187 184 213 228 234 232 231 242 247 247 248 250 253 256 258 261 269 273 276 284 291 291 289 287 287 288 288 288 292 294 296 299 298 295 296 298 301 303 305 307 309 309 311 311 309 309 310 311 313 314 314 314 314 312 309 306
248 252 261 268 270 267 271 285 310 261 258 261 196 212 249 260 263 264 266 267 266 267 273 272 221 157 131 166 235 253 206 209 268 288 276 259 257 260 261 261 261 259 259 262 266 269 272 277 283 289 292 292 292 292 293 293 291 294 298 300 303 303 300 298 297 296 299 301 300 300 302 303 304 305 305 305 307 307 309 309 309 310 311 310 308 305
250 247 253 258 259 267 279 282 263 248 249 283 87 182 264 279 271 266 266 265 266 268 271 272 233 175 159 141 155 310 335 315 310 301 278 258 250 256 262 263 264 267 269 271 274 277 280 284 289 291 292 294 297 297 297 297 299 302 304 306 307 305 301 300 298 294 294 298 299 299 301 301 300 299 299 299 301 302 303 305 305 305 307 307 305 301
244 247 254 252 249 261 263 247 250 257 263 256 234 221 260 275 258 263 266 262 261 262 268 278 263 154 131 104 85 346 327 317 305 285 262 245 240 247 252 257 266 269 269 273 277 282 287 289 289 289 290 293 295 298 299 302 306 309 309 309 309 308 307 305 300 296 296 299 300 299 297 297 297 297 296 295 295 296 297 299 301 301 303 303 300 297
237 244 254 255 245 249 253 248 256 274 272 255 246 232 238 257 264 280 284 277 263 251 247 237 172 148 133 120 162 267 310 315 300 284 264 235 226 236 244 255 266 267 267 273 278 282 289 291 288 287 291 296 300 304 308 310 313 314 311 312 312 311 310 306 301 299 299 299 299 298 295 294 295 296 297 295 293 293 295 297 297 296 296 296 294 293
238 238 241 252 250 245 258 262 262 268 267 260 280 23 33 10 354 332 293 278 260 237 214 169 153 149 142 177 212 206 233 289 284 290 290 207 200 233 253 255 263 268 271 276 281 287 292 293 293 297 304 307 310 314 318 317 316 316 313 313 313 310 307 304 300 300 300 298 297 296 294 295 296 296 296 294 292 292 294 297 296 292 292 291 288 288
244 241 238 249 256 249 255 261 257 263 273 248 217 41 62 62 32 356 286 279 278 206 177 145 142 153 180 217 213 186 203 257 269 290 326 134 202 258 274 270 275 276 277 283 289 293 297 303 308 308 309 313 315 318 323 321 319 318 315 314 312 308 305 303 302 302 301 300 299 297 296 297 296 295 294 293 292 291 292 293 293 290 288 286 284 284
220 233 231 237 247 246 247 253 253 262 282 45 174 94 108 117 46 327 283 286 352 162 166 147 157 181 203 220 213 196 218 250 271 291 308 302 282 278 274 274 280 281 283 289 296 307 318 317 313 310 312 318 319 322 328 327 321 316 313 311 310 306 304 304 305 305 304 302 299 296 296 297 296 295 294 293 293 293 292 290 289 286 284 283 282 280
186 220 229 235 244 245 245 252 257 258 265 266 236 163 142 137 265 265 273 292 139 188 189 166 183 204 215 231 243 237 239 255 273 282 287 286 282 275 271 276 281 283 287 295 312 334 322 311 310 311 314 321 324 326 328 323 318 314 312 311 308 306 307 308 307 305 302 299 297 295 296 298 297 295 294 293 293 292 290 288 287 285 284 283 281 278
205 213 230 239 245 246 247 256 264 265 254 227 186 149 155 195 250 263 284 79 153 192 198 198 211 225 242 255 261 262 263 269 276 281 281 280 278 277 277 280 284 287 294 310 336 337 316 309 311 310 314 325 327 322 321 318 314 312 311 310 307 309 312 310 306 303 300 298 298 298 298 299 298 296 294 293 293 291 289 288 287 285 284 283 280 278
256 255 251 245 242 249 255 251 253 273 268 145 135 132 197 220 253 293 357 140 178 189 203 218 223 230 248 262 266 267 272 275 276 278 277 275 276 276 276 280 287 295 310 322 326 329 325 319 314 309 315 325 323 318 319 316 312 310 307 306 308 311 311 306 303 302 300 298 298 299 300 299 297 297 295 294 294 292 289 290 290 287 285 283 280 278
249 248 256 255 244 250 258 247 244 282 325 147 169 238 253 243 263 285 263 247 237 220 220 232 245 248 250 255 261 266 273 275 273 274 272 271 273 275 278 286 296 309 318 319 326 340 339 328 317 311 311 316 318 317 317 314 311 309 307 307 309 310 307 303 303 303 300 299 299 299 300 299 298 297 296 295 295 292 288 289 290 288 285 281 278 276
217 222 237 250 256 259 266 273 283 302 294 206 213 256 272 271 269 257 246 256 261 257 252 258 273 276 267 259 261 264 268 271 273 273 270 269 274 279 286 304 319 311 316 328 345 345 333 325 318 311 309 312 319 318 315 315 314 309 307 308 309 309 307 306 306 304 301 301 299 297 298 299 297 296 295 295 294 290 287 289 290 288 285 282 278 276
235 243 246 252 264 266 266 270 274 276 273 264 256 253 255 262 267 263 256 255 258 265 269 271 277 280 274 267 267 265 262 266 272 274 273 274 280 286 294 306 311 321 337 354 355 337 326 320 314 309 308 311 319 321 315 315 313 306 306 310 308 306 307 308 306 303 300 300 299 297 298 299 296 293 294 293 290 285 284 287 289 287 286 284 281 278
249 251 250 250 256 259 260 260 258 259 265 269 266 258 254 256 259 258 257 259 264 269 274 275 275 274 269 267 264 260 260 265 270 272 275 278 283 292 309 315 330 352 359 357 340 325 320 315 309 307 307 308 314 320 314 311 308 302 304 312 311 308 307 306 303 300 299 299 299 297 297 296 292 291 293 293 290 287 286 285 285 284 284 284 283 282
248 248 247 244 247 249 256 263 264 262 265 267 266 265 265 263 263 264 266 270 273 273 271 269 267 265 263 259 256 258 263 265 268 272 275 281 293 308 327 342 357 355 341 335 326 317 313 308 303 303 304 303 308 312 309 307 307 305 306 311 312 310 307 304 300 297 297 298 297 295 293 292 291 292 294 293 291 288 286 286 284 282 281 280 280 280
255 255 247 244 250 253 256 261 265 265 266 264 260 260 264 267 271 274 274 273 276 279 272 257 244 244 255 260 260 263 264 263 266 274 281 290 305 322 341 352 352 337 323 319 315 309 305 301 300 300 299 298 302 305 304 304 308 311 311 311 311 310 307 303 300 297 296 296 295 293 291 291 293 295 294 292 290 286 282 282 282 281 280 278 276 275
250 249 243 240 250 253 248 248 253 258 265 267 266 267 270 274 279 280 276 270 273 281 279 262 234 215 231 256 260 255 253 255 264 280 288 296 313 334 344 341 328 318 314 310 304 301 298 298 301 299 296 296 298 299 301 304 307 311 313 312 312 310 305 301 300 297 296 295 294 293 294 295 295 294 291 288 288 287 284 282 281 280 281 281 279 278
237 242 241 237 242 245 244 246 249 253 262 270 275 277 276 278 280 278 273 271 276 285 285 266 243 220 211 208 198 219 242 253 288 351 316 297 319 332 328 322 316 312 309 303 300 300 301 302 302 297 294 296 300 301 304 307 308 310 312 313 313 310 304 301 299 297 296 296 294 294 296 295 293 291 289 287 286 287 287 287 285 283 281 281 283 284
Height
800 806 808 806 798 789 785 785 785 783 783 785 788 792 792 792 788 778 773 767 770 781 778 773 772 770 767 763 756 749 743 744 743 741 739 737 737 737 738 740 744 748 753 755 755 755 755 754 752 750 749 747 745 744 742 741 740 740 739 739 739 740 740 741 741 742 742 743 744 745 746 747 748 749 750 752 753 755 756 758 759 760 763 765 767 770
803 808 803 794 787 781 780 780 780 782 785 787 791 792 791 790 785 775 770 767 771 783 779 771 772 769 764 758 751 746 744 742 739 738 739 738 738 740 742 746 750 753 755 757 757 757 757 755 754 752 750 749 748 747 745 744 743 742 741 741 741 741 741 742 742 743 743 743 744 744 745 746 747 749 750 751 753 755 756 757 758 759 761 763 765 767
807 805 796 786 781 780 782 782 784 787 789 791 791 793 794 788 782 775 769 768 775 784 780 773 776 772 761 752 745 743 742 738 735 737 740 742 743 746 750 753 756 757 758 759 760 760 759 757 755 753 752 751 751 750 748 746 745 744 743 743 742 742 743 743 743 744 744 744 744 745 746 746 747 748 749 750 751 753 755 756 757 759 760 761 762 764
803 796 786 781 779 782 786 785 788 790 790 791 792 794 793 785 785 784 773 772 778 780 779 778 779 773 758 747 741 739 738 735 736 739 742 746 749 753 757 759 761 763 763 764 764 763 762 759 757 755 754 754 753 752 748 747 746 746 746 745 744 744 744 745 745 745 746 745 745 745 746 746 748 748 748 749 750 751 752 753 754 756 758 760 761 763
792 783 779 781 782 786 790 789 789 792 790 787 787 791 790 783 784 783 775 775 776 775 778 780 779 767 750 746 742 736 735 734 736 740 745 751 755 758 760 762 766 768 769 769 768 768 765 761 759 759 758 756 755 752 749 749 749 749 749 748 747 746 746 746 747 747 747 747 747 746 746 746 748 748 749 750 750 751 751 752 752 753 755 757 759 760
785 780 781 786 787 788 793 792 788 790 791 786 782 782 783 782 782 781 779 784 787 784 781 782 787 774 750 747 744 736 736 735 735 743 752 758 762 764 764 765 769 770 772 773 773 773 769 764 763 762 761 759 757 755 753 753 752 752 751 750 749 748 748 748 748 748 749 749 750 749 747 747 748 749 749 750 751 751 752 752 752 753 753 755 756 757
784 783 786 789 791 792 797 795 786 787 793 790 785 781 781 783 785 786 786 792 794 788 778 780 792 784 760 750 742 736 739 736 736 747 757 763 766 769 771 771 773 773 775 776 777 776 771 766 766 765 765 763 760 759 758 756 755 754 753 752 751 751 750 750 750 750 750 751 752 751 749 749 749 750 750 751 751 752 752 753 753 753 754 754 755 756
782 788 792 792 793 794 796 792 783 784 791 791 789 788 785 784 788 789 791 794 791 785 779 777 784 784 770 753 736 733 739 736 740 755 764 768 769 770 772 774 776 777 778 778 779 778 774 769 769 769 768 766 765 764 761 760 758 757 756 755 754 754 753 753 753 752 751 752 754 752 750 750 751 752 752 752 752 753 753 753 753 754 754 754 755 756
782 791 793 791 795 794 790 786 781 783 788 789 791 790 786 788 790 789 791 792 787 788 788 778 779 785 773 749 733 735 739 736 745 760 767 770 772 773 775 776 778 779 780 780 781 780 775 771 770 771 771 770 769 767 765 764 762 761 760 758 757 757 756 756 755 754 754 756 757 753 750 750 752 753 753 753 754 754 753 753 753 754 754 754 754 755
784 790 788 787 792 788 784 788 787 785 786 790 792 790 788 790 788 788 791 789 788 794 791 777 776 782 770 748 738 744 743 736 745 761 766 769 773 776 778 779 780 780 781 783 783 781 775 773 775 775 775 774 773 771 770 768 766 764 763 761 760 759 759 758 757 757 758 759 758 753 750 751 753 754 754 755 755 755 754 754 753 753 753 754 754 754
784 791 790 787 785 782 785 794 795 791 791 793 791 788 788 785 782 786 786 786 794 793 778 766 766 773 771 752 738 743 742 733 741 759 767 769 773 777 780 782 782 782 783 785 785 781 777 777 779 779 779 778 776 775 773 770 769 768 766 765 764 763 762 761 760 761 762 761 757 752 751 752 754 755 755 756 756 756 755 755 754 753 753 753 753 753
787 792 789 784 783 783 787 793 796 796 794 793 790 789 790 783 780 786 785 790 799 786 764 756 758 766 771 755 736 736 737 733 740 754 764 771 775 778 782 784 784 783 785 786 784 781 780 781 782 782 782 780 779 778 776 774 772 771 770 768 767 766 765 764 763 764 763 760 755 752 752 754 755 756 756 756 757 756 756 756 755 754 753 753 753 752
785 785 782 781 783 784 786 789 792 795 793 792 789 791 797 792 787 790 787 787 788 775 764 761 761 766 763 747 734 733 740 744 746 752 762 770 774 779 784 786 784 784 786 785 783 783 784 785 784 784 784 783 782 780 779 777 775 774 773 771 770 768 767 766 765 764 762 758 755 753 754 755 756 756 757 757 757 757 756 756 756 755 754 753 753 752
780 779 779 782 781 778 782 783 784 786 788 790 788 789 796 796 797 797 787 781 775 767 767 768 769 770 759 740 731 735 748 755 755 760 765 770 775 780 783 783 783 784 785 785 785 786 787 787 787 787 786 786 785 783 782 780 778 777 775 774 772 770 769 767 766 764 762 760 758 756 756 757 757 757 757 757 757 757 756 756 756 755 754 754 753 753
787 784 777 777 776 774 776 774 773 776 780 782 777 781 789 789 794 796 787 783 778 769 770 776 776 767 754 744 741 746 756 759 761 767 770 772 777 780 781 781 782 784 785 786 788 788 788 789 789 789 788 787 786 785 784 782 781 779 778 776 774 772 771 769 767 766 764 763 761 760 759 759 759 758 758 758 757 757 756 756 755 755 755 754 753 753
788 783 772 776 776 773 775 771 770 776 780 778 775 782 787 781 781 787 783 780 781 778 774 773 767 749 738 743 749 755 760 762 766 770 772 776 778 779 781 782 784 785 787 788 789 789 789 790 790 790 790 789 788 787 785 784 783 782 780 779 777 775 773 771 770 768 767 766 765 763 762 761 761 760 759 759 758 757 756 755 755 755 754 753 753 752
786 780 773 780 778 775 779 776 773 777 780 782 784 785 782 775 776 786 786 777 780 785 773 760 756 743 735 741 750 757 761 765 770 772 774 778 779 781 785 786 787 788 789 789 790 790 790 790 790 790 790 789 789 788 787 786 785 784 783 781 780 778 776 774 772 771 770 768 767 766 765 764 763 762 761 760 759 758 757 756 755 754 753 752 752 751
788 784 774 774 777 778 782 782 778 776 778 783 786 781 776 777 778 784 790 786 785 785 770 756 755 750 745 747 751 756 761 767 772 774 777 780 781 784 787 789 790 790 790 791 790 791 790 790 791 791 790 790 789 789 789 788 787 786 786 784 783 781 779 777 775 774 772 770 769 768 767 766 765 764 763 763 761 760 758 757 756 755 754 752 751 749
790 791 778 770 776 781 782 784 781 778 778 781 782 780 781 787 786 783 790 795 793 787 773 761 757 753 748 744 742 748 758 767 772 774 778 781 783 786 788 790 791 791 792 792 791 792 791 791 792 791 791 791 790 790 789 789 788 788 787 786 786 784 782 781 778 776 775 773 771 770 769 768 767 766 765 764 763 761 760 758 757 756 754 752 749 748
791 797 788 774 774 780 782 783 782 779 780 784 785 782 781 786 787 782 784 789 791 790 782 771 764 754 744 739 738 744 754 764 770 774 780 784 786 788 789 791 792 792 793 793 793 793 792 793 793 792 792 792 791 791 790 790 789 788 788 787 787 786 784 783 780 778 777 775 773 772 770 769 767 767 766 765 764 763 761 759 758 756 754 752 749 747
790 795 794 781 777 783 782 777 775 774 775 781 786 786 784 784 784 783 781 778 781 788 785 781 774 756 744 747 750 751 757 764 769 776 783 786 789 791 791 792 792 793 793 793 793 793 793 793 793 792 793 792 792 792 791 790 789 789 788 787 787 786 785 783 782 780 779 777 775 773 771 770 768 767 766 766 765 763 762 760 758 756 754 752 749 747
789 790 793 787 782 782 775 766 765 767 768 771 776 778 779 779 782 791 790 776 774 781 779 780 776 758 753 761 762 762 768 771 775 781 786 789 791 792 793 793 793 793 793 793 793 793 793 793 793 793 792 792 792 791 791 790 790 789 789 788 787 786 784 783 782 781 780 778 776 774 772 770 768 767 766 765 764 763 762 760 758 756 754 751 749 747
790 791 793 791 783 777 770 763 762 764 766 769 772 772 774 776 779 788 790 778 774 774 770 773 771 761 768 777 772 774 779 779 782 785 787 790 792 792 792 792 793 793 793 794 793 793 794 794 794 793 792 792 791 791 790 789 789 789 789 788 788 786 785 784 782 781 779 778 776 774 772 770 768 766 765 764 763 763 762 760 758 755 752 749 747 746
793 795 795 791 782 772 767 763 762 766 770 773 775 773 775 778 776 779 783 784 787 782 774 777 770 761 776 787 782 783 786 783 785 785 786 789 789 791 792 791 793 794 794 795 794 794 794 794 793 793 792 792 791 790 789 788 788 788 788 788 787 786 786 784 783 782 780 778 777 774 772 769 767 765 764 763 762 761 760 759 756 753 749 746 745 745
796 794 793 794 790 783 777 770 767 772 777 779 779 778 778 779 780 782 784 786 791 785 778 783 774 761 775 789 787 786 785 784 786 786 787 789 788 790 792 792 794 795 795 795 794 793 793 792 792 791 791 790 789 789 788 787 787 787 787 787 786 786 785 784 783 781 779 778 776 774 772 769 767 765 763 762 762 761 759 756 753 750 747 745 744 743
798 794 794 800 801 796 790 781 775 777 781 784 785 783 782 781 782 785 785 787 787 777 772 779 773 762 772 784 784 783 783 783 787 790 791 791 790 791 792 794 795 795 795 795 794 793 793 792 792 791 790 790 789 788 787 786 786 786 786 786 786 785 785 783 781 779 778 776 775 773 772 770 767 764 762 761 760 759 757 754 751 748 746 745 744 744
801 799 797 800 800 796 790 783 778 780 785 786 786 784 782 782 782 786 790 789 784 777 775 774 768 765 769 769 769 774 779 782 784 788 791 791 791 792 792 793 794 793 794 793 793 793 792 792 792 791 791 791 790 789 788 787 787 786 786 786 786 785 784 782 781 779 778 777 775 774 772 769 767 764 761 760 758 756 754 752 750 748 747 745 744 743
802 801 796 794 795 791 786 783 781 782 784 784 784 783 781 781 782 786 788 782 780 785 783 770 765 770 769 762 760 765 773 777 778 781 785 786 787 789 790 791 792 792 791 791 791 791 791 791 791 791 791 790 789 789 788 788 788 787 787 787 786 786 784 783 781 779 778 777 775 774 772 769 766 763 761 759 757 755 753 751 749 747 746 745 744 743
802 803 795 793 793 788 784 783 781 780 781 781 781 780 778 778 779 781 780 776 779 786 782 771 770 773 769 764 761 761 765 770 771 774 777 780 783 785 787 789 789 789 789 789 789 789 790 790 790 790 790 789 788 788 787 788 788 787 787 787 786 785 784 782 781 779 778 777 775 774 771 768 765 762 760 759 757 755 753 750 748 746 744 743 742 742
802 801 793 792 793 788 784 782 780 781 782 781 781 779 778 777 775 775 776 774 776 778 776 774 775 771 766 763 760 759 762 765 768 772 775 778 781 783 785 786 786 786 786 787 787 788 788 789 788 788 788 787 787 787 787 787 787 787 787 786 785 784 783 782 781 780 779 777 775 772 769 765 763 760 758 756 755 754 752 750 747 745 744 742 740 739
803 799 792 794 796 791 785 782 782 784 785 785 784 781 778 777 775 777 777 776 776 776 773 772 773 766 761 760 760 762 766 768 771 774 776 777 780 781 783 784 784 784 785 785 786 787 787 787 787 787 786 786 786 786 786 786 786 786 785 784 784 783 782 781 780 778 777 774 771 768 765 762 759 757 756 754 752 750 748 747 746 744 743 741 739 737
807 804 799 802 805 797 789 788 789 788 790 792 790 783 779 778 777 776 774 772 773 772 769 768 768 764 759 762 766 768 769 772 773 775 776 777 779 781 783 783 783 783 783 784 785 785 785 785 785 785 785 785 785 784 784 784 784 784 783 782 782 781 780 779 777 775 772 769 767 764 761 759 757 755 753 752 750 748 746 744 743 742 741 739 737 736
809 810 809 810 809 802 793 793 796 801 803 796 784 778 777 776 774 772 769 768 767 766 766 766 767 768 768 771 773 773 773 776 776 776 777 778 779 781 781 781 781 781 781 782 783 783 783 783 783 783 783 783 782 782 782 782 781 781 780 779 778 777 776 775 772 770 768 765 763 761 759 757 755 753 751 749 748 746 744 743 740 739 738 736 735 733
808 810 810 808 808 805 796 795 804 811 805 786 770 768 770 769 770 770 768 766 763 762 764 767 772 777 777 776 776 776 776 778 779 779 779 780 781 781 780 780 780 779 780 780 780 780 781 780 781 781 780 780 780 780 780 779 778 777 776 776 775 773 772 770 768 766 764 762 760 758 757 755 753 751 750 748 746 744 742 740 738 736 734 733 731 730
807 808 807 804 805 803 796 802 813 807 788 775 771 770 770 769 770 771 769 766 764 763 763 766 773 776 776 776 777 778 779 779 780 780 779 780 780 780 779 779 778 778 778 778 778 778 778 778 778 778 778 778 778 777 777 776 775 774 773 772 771 770 768 766 764 762 761 759 757 756 754 753 751 749 747 745 744 741 739 737 735 733 731 729 728 726
803 806 803 800 801 801 799 805 805 789 776 777 777 773 774 776 774 774 772 766 763 765 765 765 769 773 776 779 779 779 781 781 780 779 778 778 778 777 778 777 777 777 777 776 775 775 775 775 775 775 775 775 775 775 775 774 773 772 770 769 768 766 765 763 761 759 758 756 755 753 752 750 749 747 745 743 741 738 736 734 732 729 727 726 723 721
798 802 802 800 797 796 798 795 785 777 776 774 771 769 772 773 770 772 775 769 763 765 768 769 772 776 778 779 780 780 782 783 783 777 772 772 774 774 775 776 775 775 775 774 774 773 773 773 773 773 773 773 773 773 772 771 770 769 768 767 765 764 762 761 759 757 756 754 753 751 750 748 746 744 743 741 739 736 734 731 729 726 724 722 719 716
794 796 800 803 796 789 792 790 784 785 780 768 766 772 773 774 772 773 778 775 765 764 769 771 774 778 780 780 781 781 783 786 784 774 767 769 772 773 773 774 773 773 773 772 772 772 772 772 771 772 772 771 771 771 770 770 768 767 766 765 764 763 761 759 758 756 754 752 750 749 747 745 744 741 739 737 735 733 731 728 726 724 721 718 714 710
796 794 795 802 800 792 794 794 789 786 777 769 773 776 775 776 774 774 781 777 767 768 772 772 776 781 782 781 779 781 786 787 781 771 767 769 771 771 772 772 771 771 771 770 771 770 770 770 770 770 770 770 770 769 769 768 767 766 766 764 763 762 759 758 756 754 752 750 748 746 744 742 741 738 736 733 731 729 727 724 722 720 718 715 711 706
802 798 795 802 803 797 798 798 790 781 774 773 777 776 775 774 773 782 791 780 769 775 776 772 776 780 779 778 778 780 783 781 774 769 767 768 769 769 770 770 769 769 769 769 769 769 768 769 769 768 768 769 769 768 767 767 766 765 764 763 762 760 758 756 754 752 750 747 745 743 740 739 737 735 732 730 727 725 722 719 716 714 711 709 706 702
805 802 797 798 798 796 797 796 790 781 772 771 773 773 774 776 780 789 788 773 769 778 776 772 775 776 774 776 776 776 776 772 769 768 766 766 767 767 767 767 767 767 767 768 768 768 768 768 768 768 768 768 768 767 766 765 764 763 762 761 760 758 756 755 752 749 747 744 741 739 736 735 733 730 728 726 723 720 717 714 711 709 705 702 700 696
804 804 799 794 793 793 791 790 790 782 768 766 772 773 773 780 784 781 773 767 771 775 773 773 774 772 772 773 772 772 770 768 767 766 765 765 765 765 765 765 765 765 766 767 767 767 767 767 767 767 768 768 767 766 765 764 763 762 761 759 758 756 754 752 750 746 743 740 737 735 732 730 728 726 723 721 718 715 711 708 706 704 700 697 693 689
794 798 796 787 785 789 790 793 797 788 770 766 775 776 774 778 775 768 767 770 771 770 771 773 772 770 771 771 769 769 767 766 766 765 763 764 763 763 763 763 763 764 765 766 767 767 767 767 766 766 767 767 766 765 764 763 762 760 759 757 756 754 752 749 746 743 739 736 733 731 728 725 723 721 718 715 713 711 706 702 701 698 695 692 688 683
792 794 792 781 776 783 787 786 783 777 769 769 773 772 769 769 766 764 767 769 767 768 770 769 768 767 768 767 767 767 765 764 764 762 762 762 761 761 761 761 762 764 765 766 767 766 766 767 766 765 765 765 765 764 763 762 760 758 757 755 753 751 748 745 743 740 736 733 730 726 724 721 718 716 714 711 709 706 701 698 695 693 689 687 683 678
787 784 784 778 773 774 775 770 766 765 767 768 768 767 765 764 763 764 766 765 764 765 765 764 764 764 763 764 764 763 762 762 761 760 760 759 758 759 760 761 763 764 765 766 766 766 766 766 765 763 762 762 763 763 761 761 760 757 755 753 751 749 745 742 740 736 733 730 727 723 720 717 714 712 709 707 705 701 697 694 691 688 685 682 679 674
776 774 776 776 774 772 770 767 765 765 764 763 764 765 763 761 760 761 763 762 762 761 761 761 761 760 760 762 761 760 760 760 758 758 757 757 757 759 760 762 763 764 764 765 766 766 765 765 764 762 760 759 761 761 759 759 758 756 753 750 748 746 743 740 737 733 729 726 723 719 717 713 709 707 704 702 700 697 693 690 687 684 681 679 676 671
773 773 773 774 776 777 773 766 763 763 761 759 760 760 758 758 758 758 758 758 758 758 758 758 758 758 759 759 759 759 758 757 756 756 755 756 758 759 760 762 763 764 765 765 765 765 765 764 763 761 759 757 758 758 758 756 755 753 751 748 746 743 740 738 734 730 725 722 719 716 713 710 705 702 700 697 695 692 689 687 684 680 677 675 672 667
770 769 770 771 771 771 769 763 759 759 757 755 757 757 755 755 755 754 754 754 754 755 755 755 756 756 756 757 757 756 755 755 756 755 756 757 758 759 761 762 763 764 765 765 765 765 765 764 762 760 759 757 756 756 755 753 752 751 748 746 744 741 737 734 731 727 722 719 716 712 709 706 703 699 696 693 691 689 685 683 680 676 673 671 669 664
766 765 764 767 767 766 765 760 756 756 754 751 752 753 752 752 751 751 751 751 751 752 752 752 754 754 754 755 755 755 755 755 755 756 758 759 759 760 762 763 764 764 764 764 765 764 764 762 761 759 758 756 755 754 753 751 750 748 746 743 741 738 734 730 727 724 720 716 713 709 706 703 700 697 693 690 686 684 681 678 676 672 667 665 664 660
763 760 758 763 769 766 760 755 753 755 753 748 746 748 748 748 748 748 748 749 750 750 750 750 751 752 754 755 755 755 756 756 756 758 759 759 760 762 763 763 764 764 764 764 764 763 762 761 759 757 756 754 753 752 750 748 747 744 743 741 738 736 732 728 724 720 717 713 710 706 703 700 697 694 691 687 682 678 674 672 671 668 663 659 656 654
755 751 751 757 760 755 750 747 747 749 747 743 742 744 745 745 745 746 746 747 748 748 749 750 750 751 753 754 755 756 756 756 757 759 759 760 762 762 763 764 763 763 763 763 762 761 760 758 757 756 754 752 751 749 747 745 743 741 739 738 735 733 730 726 722 717 713 710 707 704 701 698 694 691 687 683 679 674 669 664 662 661 659 655 651 647